Location: Le Rocchette
(44.3500°N, 7.8333°E)
Time: 12:46:05
(UTC+00:00)

Cosmos 1125 Rocket - Pass Details

Date: 17 November 2019
Orbit: 758 x 779 km, 74.0° (Epoch: 15 December)

Event Time Altitude Azimuth Distance (km) Brightness Sun altitude
Rises 05:41:29 0° 204° (SSW) 3,243 6.7 -8.3°
Reaches altitude 10° 05:43:53 10° 207° (SSW) 2,318 5.9 -7.9°
Maximum altitude 05:49:08 73° 292° (WNW) 811 3.5 -7.0°
Drops below altitude 10° 05:54:25 10° 17° (NNE) 2,321 6.0 -6.1°
Sets 05:56:48 0° 20° (NNE) 3,249 6.7 -5.7°
